TimeHST,TemperatureF,Dew PointF,Humidity,Sea Level PressureIn,VisibilityMPH,Wind Direction,Wind SpeedMPH,Gust SpeedMPH,PrecipitationIn,Events,Conditions,WindDirDegrees,DateUTC
12:53 AM,79.0,66.0,64,30.04,10.0,ESE,8.1,-,N/A,,Overcast,120,2012-10-15 10:53:00
1:51 AM,78.8,66.2,65,30.03,10.0,East,5.8,-,N/A,,Mostly Cloudy,80,2012-10-15 11:51:00
1:53 AM,78.1,66.0,66,30.04,10.0,East,5.8,-,N/A,,Mostly Cloudy,80,2012-10-15 11:53:00
2:11 AM,78.8,64.4,61,30.02,10.0,ESE,8.1,-,N/A,,Mostly Cloudy,120,2012-10-15 12:11:00
2:53 AM,77.0,64.9,66,30.02,10.0,East,4.6,-,N/A,,Clear,80,2012-10-15 12:53:00
3:53 AM,77.0,64.9,66,30.01,10.0,East,4.6,-,N/A,,Clear,90,2012-10-15 13:53:00
4:53 AM,75.9,64.0,67,30.02,10.0,East,5.8,-,N/A,,Clear,100,2012-10-15 14:53:00
5:53 AM,75.9,61.0,60,30.04,10.0,SE,6.9,-,N/A,,Scattered Clouds,140,2012-10-15 15:53:00
6:53 AM,75.9,62.1,62,30.04,10.0,East,4.6,-,N/A,,Clear,100,2012-10-15 16:53:00
7:53 AM,80.1,64.0,58,30.05,10.0,SE,3.5,-,N/A,,Clear,140,2012-10-15 17:53:00
8:53 AM,82.0,66.0,58,30.06,10.0,SW,5.8,-,N/A,,Clear,230,2012-10-15 18:53:00
9:53 AM,82.0,66.9,60,30.06,10.0,WSW,6.9,-,N/A,,Clear,250,2012-10-15 19:53:00
10:53 AM,82.9,66.9,58,30.04,10.0,WSW,6.9,-,N/A,,Clear,240,2012-10-15 20:53:00
11:53 AM,84.0,68.0,58,30.01,10.0,WSW,9.2,-,N/A,,Clear,240,2012-10-15 21:53:00
12:53 PM,84.0,68.0,58,29.98,10.0,WSW,8.1,-,N/A,,Clear,240,2012-10-15 22:53:00
1:53 PM,86.0,68.0,55,29.96,10.0,WSW,10.4,-,N/A,,Clear,240,2012-10-15 23:53:00
2:53 PM,84.0,68.0,58,29.94,10.0,WSW,10.4,-,N/A,,Clear,250,2012-10-16 00:53:00
3:53 PM,82.9,69.1,63,29.94,10.0,WSW,8.1,-,N/A,,Overcast,240,2012-10-16 01:53:00
4:53 PM,82.9,69.1,63,29.95,10.0,WSW,9.2,-,N/A,,Overcast,250,2012-10-16 02:53:00
5:53 PM,82.0,68.0,62,29.96,10.0,WSW,8.1,-,N/A,,Overcast,240,2012-10-16 03:53:00
6:53 PM,81.0,68.0,65,29.98,10.0,WSW,6.9,-,N/A,,Overcast,240,2012-10-16 04:53:00
7:53 PM,81.0,68.0,65,29.99,10.0,West,3.5,-,N/A,,Overcast,280,2012-10-16 05:53:00
8:53 PM,81.0,69.1,67,30.01,10.0,WSW,6.9,-,N/A,,Mostly Cloudy,250,2012-10-16 06:53:00
9:53 PM,80.1,69.1,69,30.01,10.0,WSW,6.9,-,N/A,,Clear,250,2012-10-16 07:53:00
10:53 PM,80.1,69.1,69,30.01,10.0,SW,8.1,-,N/A,,Mostly Cloudy,230,2012-10-16 08:53:00
11:49 PM,80.6,69.8,70,30.00,10.0,SSW,5.8,-,N/A,,Mostly Cloudy,210,2012-10-16 09:49:00
11:53 PM,80.1,69.1,69,30.00,10.0,SW,5.8,-,N/A,,Mostly Cloudy,230,2012-10-16 09:53:00